This demonstration page uses our WeatherBlox Daily Observations layout. Learn more.

Left ArrowRight Arrow

36.17497, -115.13722

Hourly Observations for February 26, 2019

Temp ( °F °C ) Dew Point ( °F °C ) Humidity (%) Winds ( mph kmh ) Pressure ( in mb ) Visibility ( mi km ) Precip ( " mm )
12:53 am 00:53 Clear 48 8.9 30 -1.1 50 50 Calm 30.07 1018 10 16 0.00 0.00
1:53 am 01:53 Clear 46 7.8 31 -0.6 56 56 E 6 9 30.06 1018 10 16 0.00 0.00
2:53 am 02:53 Clear 45 7.2 31 -0.6 58 58 ESE 5 7 30.05 1018 10 16 0.00 0.00
3:53 am 03:53 Clear 45 7.2 30 -1.1 56 56 SE 6 9 30.04 1017 10 16 0.00 0.00
4:53 am 04:53 Clear 43 6.1 31 -0.6 63 63 NW 6 9 30.07 1018 10 16 0.00 0.00
5:53 am 05:53 Clear 45 7.2 30 -1.1 56 56 Calm 30.08 1019 10 16 0.00 0.00
6:53 am 06:53 Sunny 46 7.8 31 -0.6 56 56 ESE 7 11 30.09 1019 10 16 0.00 0.00
7:53 am 07:53 Sunny 51 10.6 31 -0.6 46 46 ESE 12 19 30.11 1020 10 16 0.00 0.00
8:53 am 08:53 Sunny 52 11.1 30 -1.1 43 43 E 15 24 30.12 1020 10 16 0.00 0.00
9:53 am 09:53 Sunny 57 13.9 30 -1.1 36 36 E 14 22 30.11 1020 10 16 0.00 0.00
10:53 am 10:53 Sunny 59 15 30 -1.1 33 33 ESE 9 15 30.11 1020 10 16 0.00 0.00
11:53 am 11:53 Sunny 62 16.7 29 -1.7 29 29 E 6 9 30.08 1019 10 16 0.00 0.00
12:53 pm 12:53 Sunny 64 17.8 29 -1.7 27 27 E 13 20 30.05 1018 10 16 0.00 0.00
1:53 pm 13:53 Sunny 64 17.8 29 -1.7 27 27 E 17 28 30.03 1017 10 16 0.00 0.00
2:53 pm 14:53 Sunny 66 18.9 29 -1.7 25 25 E 18 30 30.01 1016 10 16 0.00 0.00
3:53 pm 15:53 Sunny 66 18.9 29 -1.7 25 25 E 15 24 30.01 1016 10 16 0.00 0.00
4:53 pm 16:53 Sunny 62 16.7 30 -1.1 30 30 E 14 22 30.01 1016 10 16 0.00 0.00
5:53 pm 17:53 Clear 60 15.6 31 -0.6 33 33 E 14 22 30.02 1017 10 16 0.00 0.00
6:53 pm 18:53 Clear 58 14.4 32 0 38 38 E 5 7 30.03 1017 10 16 0.00 0.00
7:53 pm 19:53 Clear 57 13.9 33 0.6 41 41 E 8 13 30.04 1017 10 16 0.00 0.00
8:53 pm 20:53 Clear 56 13.3 33 0.6 42 42 ENE 3 6 30.05 1018 10 16 0.00 0.00
9:53 pm 21:53 Clear 55 12.8 34 1.1 45 45 E 5 7 30.07 1018 10 16 0.00 0.00
10:53 pm 22:53 Clear 53 11.7 34 1.1 48 48 ENE 6 9 30.06 1018 10 16 0.00 0.00
11:53 pm 23:53 Clear 51 10.6 34 1.1 52 52 E 5 7 30.07 1018 10 16 0.00 0.00

Powered by AerisWeather